Seldovia, AK

11:38 AM AKST on December 15, 2017 (GMT -0900)
Seldovia

Weather History for PASO - October, 2013

Change the Weather History Date:

Sunday, October 13, 2013

  Actual Average (PAHO) Record (PAHO)
Temperature  
Mean Temperature 45 °F -  
Max Temperature 50 °F 45 °F 57 °F (2016)
Min Temperature 42 °F 33 °F 19 °F (1939)
Degree Days  
Heating Degree Days 20    
Moisture  
Dew Point 42 °F    
Average Humidity 88    
Maximum Humidity 96    
Minimum Humidity 71    
Precipitation  
Precipitation 0.55 in - - ()
Sea Level Pressure  
Sea Level Pressure 29.52 in    
Wind  
Wind Speed 4 mph (South)    
Max Wind Speed 9 mph    
Max Gust Speed -    
Visibility 8 miles    
Events Rain    
Averages and records for this station are not official NWS values.
T = Trace of Precipitation, MM = Missing Value Source: NWS Daily Summary

Daily Weather History Graph

Daily Weather History Graph

Search for Another Location

Airport or City:

Trip Planner

Search our weather history database for the weather conditions in past years. The results will help you decide how hot, cold, wet, or windy it might be!

Date:

Astronomy

Oct. 13, 2013 Rise Set
Actual Time 8:41 AM AKDT 7:03 PM AKDT
Civil Twilight 7:59 AM AKDT 7:44 PM AKDT
Nautical Twilight 7:12 AM AKDT 8:31 PM AKDT
Astronomical Twilight 6:24 AM AKDT 9:19 PM AKDT
Moon 5:06 PM AKDT (10/13) 1:47 AM AKDT (10/13)
Length of Visible Light 11h 44m
Length of Day
10h 22m
Waxing Gibbous, 71% of the Moon is Illuminated
Oct 13
Waxing Gibbous
Oct 18
Full
Oct 26
Last Quarter
Nov 3
New
Nov 9
First Quarter

Hourly Weather History & Observations

Time (AKDT) Temp. Windchill Dew Point Humidity Pressure Visibility Wind Dir Wind Speed Gust Speed Precip Events Conditions
12:53 AM 48.9 °F - 44.1 °F 83% 29.44 in 4.0 mi Variable 5.8 mph - 0.09 in Rain Light Rain
1:53 AM 48.9 °F - 45.0 °F 86% 29.46 in 3.0 mi South 9.2 mph - 0.13 in Rain Rain
2:53 AM 48.9 °F - 46.0 °F 90% 29.47 in 5.0 mi Calm Calm - 0.08 in Rain Rain
3:53 AM 48.9 °F - 46.0 °F 90% 29.46 in 10.0 mi SSW 4.6 mph - 0.04 in Rain Light Rain
4:53 AM 46.9 °F - 44.1 °F 90% 29.46 in 10.0 mi South 6.9 mph - 0.01 in Rain Light Rain
5:53 AM 46.0 °F 43.1 °F 43.0 °F 89% 29.44 in 10.0 mi South 5.8 mph - 0.02 in Rain Light Rain
6:53 AM 45.0 °F - 42.1 °F 90% 29.43 in 10.0 mi Calm Calm - 0.00 in   Mostly Cloudy
7:53 AM 43.0 °F - 41.0 °F 93% 29.43 in 10.0 mi Calm Calm - N/A   Partly Cloudy
8:53 AM 42.1 °F 40.2 °F 41.0 °F 96% 29.44 in 10.0 mi North 3.5 mph - N/A   Partly Cloudy
9:53 AM 43.0 °F - 41.0 °F 93% 29.46 in 9.0 mi Calm Calm - N/A   Partly Cloudy
10:53 AM 43.0 °F - 41.0 °F 93% 29.47 in 8.0 mi Calm Calm - N/A   Partly Cloudy
11:53 AM 46.9 °F - 43.0 °F 86% 29.48 in 10.0 mi South 4.6 mph - N/A   Overcast
12:53 PM 48.9 °F - 39.9 °F 71% 29.50 in 10.0 mi Variable 4.6 mph - N/A   Partly Cloudy
1:53 PM 46.9 °F - 39.9 °F 77% 29.50 in 9.0 mi South 8.1 mph - 0.00 in Rain Light Rain
2:31 PM 46.4 °F 44.3 °F 42.8 °F 87% 29.51 in 2.5 mi South 4.6 mph - 0.05 in Rain Rain
2:41 PM 46.4 °F 45.2 °F 42.8 °F 87% 29.51 in 3.0 mi Variable 3.5 mph - 0.06 in Rain Light Rain
2:53 PM 46.0 °F 44.8 °F 43.0 °F 89% 29.51 in 6.0 mi South 3.5 mph - 0.07 in Rain Light Rain
3:53 PM 48.0 °F - 44.1 °F 86% 29.52 in 6.0 mi Calm Calm - 0.04 in Rain Light Rain
4:53 PM 46.9 °F - 43.0 °F 86% 29.53 in 10.0 mi Calm Calm - 0.03 in   Overcast
5:53 PM 46.0 °F - 42.1 °F 86% 29.55 in 10.0 mi Calm Calm - 0.01 in   Mostly Cloudy
6:50 PM 44.6 °F 42.2 °F 41.0 °F 87% 29.56 in 10.0 mi South 4.6 mph - 0.00 in Rain Light Rain
6:53 PM 45.0 °F 42.6 °F 41.0 °F 86% 29.57 in 10.0 mi South 4.6 mph - 0.00 in   Mostly Cloudy
7:00 PM 44.6 °F - 41.0 °F 87% 29.57 in 7.0 mi Calm Calm - 0.00 in Rain Light Rain
7:53 PM 45.0 °F 43.5 °F 41.0 °F 86% 29.59 in 10.0 mi Variable 3.5 mph - 0.01 in Rain Light Rain
8:53 PM 45.0 °F 42.6 °F 39.9 °F 82% 29.62 in 10.0 mi South 4.6 mph - 0.00 in   Overcast
9:53 PM 43.0 °F - 41.0 °F 93% 29.64 in 7.0 mi Calm Calm - 0.01 in Rain Light Rain
10:53 PM 43.0 °F - 41.0 °F 93% 29.65 in 10.0 mi Calm Calm - 0.01 in   Mostly Cloudy
11:53 PM 42.1 °F - 41.0 °F 96% 29.66 in 8.0 mi Calm Calm - 0.00 in Rain Light Rain